Weather History for Kansas City International, MO

Change the Weather History Date:

Friday, September 20, 2013

  Actual Average Record
Temperature  
Mean Temperature 63 °F 66 °F  
Max Temperature 71 °F 77 °F 95 °F (1948)
Min Temperature 55 °F 55 °F 38 °F (1983)
Degree Days  
Heating Degree Days 2 3  
Month to date heating degree days 6 24  
Since 1 July heating degree days 6 26  
Cooling Degree Days 0 4  
Month to date cooling degree days 202 129  
Year to date cooling degree days 1296 1302  
Growing Degree Days 14 (Base 50)    
Moisture  
Dew Point 51 °F    
Average Humidity 66    
Maximum Humidity 87    
Minimum Humidity 44    
Precipitation  
Precipitation 0.00 in 0.16 in 3.73 in (1957)
Month to date precipitation 4.42 3.13  
Year to date precipitation 27.09 30.53  
Snow  
Snow 0.00 in 0.00 in 0.00 in ()
Month to date snowfall 0.0 0.0  
Since 1 July snowfall 0.0 0.0  
Since 1 September snowfall 0.0 0.0  
Snow Depth 0.00 in    
Sea Level Pressure  
Sea Level Pressure 29.99 in    
Wind  
Wind Speed 9 mph (NNW)    
Max Wind Speed 18 mph    
Max Gust Speed 23 mph    
Visibility 10 miles    
Events      
T = Trace of Precipitation, MM = Missing Value Source: NWS Daily Summary

Daily Weather History Graph

Daily Weather History Graph

Search for Another Location

Airport:

Trip Planner

Search our weather history database for the weather conditions in past years. The results will help you decide how hot, cold, wet, or windy it might be!

Date:

Astronomy

Sep. 20, 2013 Rise Set
Actual Time 7:04 AM CDT 7:18 PM CDT
Civil Twilight 6:38 AM CDT 7:45 PM CDT
Nautical Twilight 6:06 AM CDT 8:16 PM CDT
Astronomical Twilight 5:34 AM CDT 8:48 PM CDT
Moon 7:54 PM CDT (9/20) 8:19 AM CDT (9/20)
Length of Visible Light 13h 07m
Length of Day
12h 13m
Full, 98% of the Moon is Illuminated
Sep 20
Full
Sep 26
Last Quarter
Oct 4
New
Oct 11
First Quarter
Oct 18
Full

Hourly Weather History & Observations

Time (CDT) Temp. Dew Point Humidity Pressure Visibility Wind Dir Wind Speed Gust Speed Precip Events Conditions
12:53 AM 66.0 °F 62.1 °F 87% 29.91 in 10.0 mi NW 10.4 mph - N/A   Overcast
1:53 AM 64.0 °F 59.0 °F 84% 29.94 in 10.0 mi NW 10.4 mph - N/A   Overcast
2:53 AM 62.1 °F 55.0 °F 78% 29.96 in 10.0 mi NNW 10.4 mph - N/A   Overcast
3:53 AM 60.1 °F 53.1 °F 78% 29.95 in 10.0 mi NNW 9.2 mph - N/A   Overcast
4:53 AM 60.1 °F 53.1 °F 78% 29.97 in 10.0 mi NNW 5.8 mph - N/A   Overcast
5:53 AM 59.0 °F 52.0 °F 78% 30.00 in 10.0 mi NW 8.1 mph - N/A   Overcast
6:53 AM 57.9 °F 52.0 °F 81% 30.01 in 10.0 mi NNW 6.9 mph - N/A   Overcast
7:53 AM 57.9 °F 52.0 °F 81% 30.03 in 10.0 mi NNW 8.1 mph - N/A   Mostly Cloudy
8:53 AM 59.0 °F 51.1 °F 75% 30.04 in 10.0 mi NNW 12.7 mph - N/A   Mostly Cloudy
9:53 AM 60.1 °F 50.0 °F 69% 30.04 in 10.0 mi NNW 13.8 mph - N/A   Mostly Cloudy
10:53 AM 63.0 °F 48.9 °F 60% 30.05 in 10.0 mi NNW 11.5 mph 19.6 mph N/A   Mostly Cloudy
11:53 AM 64.9 °F 48.0 °F 54% 30.04 in 10.0 mi NNW 11.5 mph - N/A   Mostly Cloudy
12:53 PM 66.0 °F 46.9 °F 50% 30.02 in 10.0 mi NW 11.5 mph - N/A   Mostly Cloudy
1:53 PM 69.1 °F 46.0 °F 44% 30.00 in 10.0 mi NW 10.4 mph 18.4 mph N/A   Mostly Cloudy
2:53 PM 69.1 °F 48.0 °F 47% 29.99 in 10.0 mi North 10.4 mph 19.6 mph N/A   Mostly Cloudy
3:53 PM 70.0 °F 48.0 °F 46% 29.97 in 10.0 mi NNW 10.4 mph - N/A   Mostly Cloudy
4:53 PM 70.0 °F 46.9 °F 44% 29.96 in 10.0 mi NNW 11.5 mph 16.1 mph N/A   Mostly Cloudy
5:53 PM 68.0 °F 46.9 °F 47% 29.96 in 10.0 mi NNW 8.1 mph - N/A   Mostly Cloudy
6:53 PM 64.9 °F 48.9 °F 56% 29.97 in 10.0 mi North 5.8 mph - N/A   Mostly Cloudy
7:53 PM 62.1 °F 46.9 °F 58% 29.98 in 10.0 mi NNW 4.6 mph - N/A   Mostly Cloudy
8:53 PM 61.0 °F 48.0 °F 62% 29.99 in 10.0 mi NW 4.6 mph - N/A   Scattered Clouds
9:53 PM 60.1 °F 48.0 °F 64% 29.99 in 10.0 mi WNW 4.6 mph - N/A   Scattered Clouds
10:53 PM 57.9 °F 48.0 °F 70% 29.99 in 10.0 mi WNW 5.8 mph - N/A   Clear
11:53 PM 57.0 °F 48.0 °F 72% 29.99 in 10.0 mi WNW 5.8 mph - N/A   Clear